Regional Weather Roundup
Issued by NWS Kansas City/Pleasant Hill, MO

Home | Current Version | Previous Version | Text Only | Print | Product List | Glossary On
Versions: 1 2 3 4 5 6 7 8 9 10 11 12 13 14 15 16 17 18 19 20 21 22 23 24 25 26 27 28 29 30 31 32 33 34 35 36 37 38 39 40 41 42 43 44 45 46 47 48 49 50
000
ASUS43 KEAX 180210
RWREAX

WEATHER ROUNDUP FOR EASTERN KANSAS AND NORTHWEST MISSOURI
NATIONAL WEATHER SERVICE KANSAS CITY/PLEASANT HILL MO
900 PM CDT WED SEP 17 2014

KSZ040-057-103>105-MOZ028-029-037-043-180300-
...KANSAS CITY METROPOLITAN AREA...

CITY           SKY/WX    TMP DP  RH WIND       PRES   REMARKS
K.C. INTL      CLEAR     68  64  87 E8        29.93R
K.C. DOWNTOWN  CLEAR     68  65  90 E6        29.92R
LEES SUMMIT    PTCLDY    68  65  90 E7        29.93R
OLATHE - IXD   CLEAR     67  64  90 E5        29.92R
OLATHE - OJC   MOCLDY    67  65  93 E5        29.92R
LAWRENCE       CLEAR     65  62  90 E3        29.91R

$$

MOZ001>008-011>017-020>025-030>033-038>040-044>046-053-054-180300-
...NORTHERN AND CENTRAL MISSOURI...

CITY           SKY/WX    TMP DP  RH WIND       PRES   REMARKS
ST. JOSEPH     PTCLDY    66  64  93 SE3       29.93R
MOSBY          FOG       63  63 100 CALM      29.93R VSB 1
WHITEMAN AFB   MOCLDY    66  65  95 E7        29.93R
CLINTON        CLOUDY    72  70  94 NE9       29.91S
SEDALIA        CLOUDY    66  63  90 E8        29.95R
WARSAW         NOT AVBL
MARSHALL       PTCLDY    66  66 100 E7        29.97R
CHILLICOTHE      N/A     68  63  84 VRB3      29.96R
MOBERLY        CLEAR     61  55  82 E5        29.98  HAZE
KIRKSVILLE     CLOUDY    64  60  87 E5        29.99R

$$

MOZ041-047>049-056>058-063>065-088>090-097-180300-
...EASTERN AND SOUTHERN MISSOURI...

CITY           SKY/WX    TMP DP  RH WIND       PRES   REMARKS
ST. LOUIS INTL CLOUDY    63  55  77 E7        29.98S
SPIRIT OF STL  CLOUDY    62  60  93 E3        29.96R FOG
COLUMBIA         N/A    N/A N/A N/A MISG        N/A
JEFFERSON CITY CLOUDY    64  61  90 NE6       29.95R
MEXICO         CLOUDY   N/A N/A N/A E5        29.98R FOG
ROLLA          MOCLDY    62  60  93 SE8       29.94R FOG
LEBANON        CLOUDY    70  64  83 E7        29.94R
OSAGE BEACH    CLOUDY    68  63  83 E5        29.93R
SPRINGFIELD    CLEAR     66  63  90 E3        29.91R
BRANSON        MOCLDY    63  63 100 CALM      29.93R
NEVADA         MOCLDY    72  68  88 E7        29.91R
JOPLIN         CLEAR     68  62  81 S7        29.90R
WEST PLAINS    MOCLDY    63  61  93 E7        29.96R

$$

IAZ060-094-KSZ022-034>040-054-083-096-NEZ052-066-093-180300-
...KANSAS...SOUTHEAST NEBRASKA AND IOWA...

CITY           SKY/WX    TMP DP  RH WIND       PRES   REMARKS
TOPEKA         CLEAR     68  66  93 E6        29.91R
MANHATTAN      CLEAR     68  65  90 NE5       29.90R
EMPORIA        CLEAR     71  67  87 NE8       29.89R
CHANUTE        CLEAR     75  71  87 E8        29.87R
WICHITA        PTCLDY    82  61  48 NE8       29.83R
OMAHA          PTCLDY    67  60  78 CALM      29.93R
LINCOLN        CLEAR     71  61  70 E5        29.93R
FALLS CITY     CLEAR     68  63  84 E5        29.92R
LAMONI         CLEAR     64  59  83 E5        29.96R
DES MOINES     CLEAR     67  57  70 E5        29.97R

$$



USA.gov is the U.S. government's official web portal to all federal, state and local government web resources and services.